IW1RCO-13 Weather Reports


time (UTC)temp
C
wind
direction
speed
KPH
gust
KPH
rain 1hr
cm
rain 24hr
cm
rain mn
cm
humidity
%
barometer
mb
20260902153430 27 0.0 0.0 0.00 0.00 0.00 70 1017.2
20260902152927 27 0.0 0.0 0.00 0.00 0.00 71 1017.2
20260902152430 27 0.0 0.0 0.00 0.00 0.00 70 1016.8
20260902151927 27 0.0 0.0 0.00 0.00 0.00 70 1017.5
20260902151430 27 0.0 0.0 0.00 0.00 0.00 70 1017.4
20260902150926 28 0.0 0.0 0.00 0.00 0.00 67 1017.9
20260902143932 27 0.0 0.0 0.00 0.00 0.00 70 1017.5
20260902143429 27 0.0 0.0 0.00 0.00 0.00 68 1017.4
20260902142932 27 0.0 0.0 0.00 0.00 0.00 70 1017.0
20260902142429 26 0.0 0.0 0.00 0.00 0.00 73 1019.0
20260902141932 26 0.0 0.0 0.00 0.00 0.00 74 1017.2
20260902141428 27 0.0 0.0 0.00 0.00 0.00 73 1017.2
20260902140931 27 0.0 0.0 0.00 0.00 0.00 72 1017.2
20260902140428 28 0.0 0.0 0.00 0.00 0.00 70 1017.7
20260902135931 27 0.0 0.0 0.00 0.00 0.00 71 1017.8
20260902135428 27 0.0 0.0 0.00 0.00 0.00 70 1018.6
20260902134931 27 0.0 0.0 0.00 0.00 0.00 70 1017.3
20260902134427 27 0.0 0.0 0.00 0.00 0.00 70 1017.6
20260902133931 27 0.0 0.0 0.00 0.00 0.00 70 1017.7
20260902133427 28 0.0 0.0 0.00 0.00 0.00 67 1018.9
20260902132930 29 0.0 0.0 0.00 0.00 0.00 64 1017.9
20260902132427 28 0.0 0.0 0.00 0.00 0.00 67 1018.7
20260902131930 28 0.0 0.0 0.00 0.00 0.00 67 1017.9
20260902131427 28 0.0 0.0 0.00 0.00 0.00 67 1019.2
20260902130930 28 0.0 0.0 0.00 0.00 0.00 68 1018.4
20260902130427 28 0.0 0.0 0.00 0.00 0.00 70 1017.6
20260902125930 28 0.0 0.0 0.00 0.00 0.00 70 1018.6
20260902125426 28 0.0 0.0 0.00 0.00 0.00 67 1019.1
20260902124929 27 0.0 0.0 0.00 0.00 0.00 70 1019.0
20260902124426 27 0.0 0.0 0.00 0.00 0.00 70 1017.8
20260902123929 27 0.0 0.0 0.00 0.00 0.00 70 1018.9
20260902123432 27 0.0 0.0 0.00 0.00 0.00 72 1018.8
20260902122929 27 0.0 0.0 0.00 0.00 0.00 70 1019.7
20260902122432 26 0.0 0.0 0.00 0.00 0.00 74 1019.5
20260902121929 26 0.0 0.0 0.00 0.00 0.00 75 1018.9
20260902121432 27 0.0 0.0 0.00 0.00 0.00 72 1019.2
20260902120928 27 0.0 0.0 0.00 0.00 0.00 70 1019.3
20260902120431 26 0.0 0.0 0.00 0.00 0.00 75 1019.6
20260902115928 25 0.0 0.0 0.00 0.00 0.00 77 1019.1
20260902115431 26 0.0 0.0 0.00 0.00 0.00 78 1019.7
20260902114928 25 0.0 0.0 0.00 0.00 0.00 79 1019.3
20260902114431 25 0.0 0.0 0.00 0.00 0.00 76 1019.4
20260902113928 25 0.0 0.0 0.00 0.00 0.00 79 1019.9
20260902113431 23 0.0 0.0 0.00 0.00 0.00 83 1019.3
20260902103926 25 0.0 0.0 0.00 0.00 0.00 77 1019.9
20260902103429 25 0.0 0.0 0.00 0.00 0.00 78 1019.6
20260902102932 25 0.0 0.0 0.00 0.00 0.00 78 1019.0
20260902102429 25 0.0 0.0 0.00 0.00 0.00 76 1019.1
20260902101932 26 0.0 0.0 0.00 0.00 0.00 74 1019.7
20260902101428 26 0.0 0.0 0.00 0.00 0.00 76 1019.3
20260902100932 25 0.0 0.0 0.00 0.00 0.00 77 1019.6
20260902100428 25 0.0 0.0 0.00 0.00 0.00 75 1019.1
20260902095931 25 0.0 0.0 0.00 0.00 0.00 73 1019.8
20260902095428 25 0.0 0.0 0.00 0.00 0.00 74 1020.0
20260902094931 25 0.0 0.0 0.00 0.00 0.00 74 1019.8
20260902094428 25 0.0 0.0 0.00 0.00 0.00 76 1019.7
20260902093931 25 0.0 0.0 0.00 0.00 0.00 75 1019.8
20260902093428 25 0.0 0.0 0.00 0.00 0.00 76 1019.8
20260902092931 23 0.0 0.0 0.00 0.00 0.00 77 1019.5
20260902092427 23 0.0 0.0 0.00 0.00 0.00 77 1019.7
20260902091930 24 0.0 0.0 0.00 0.00 0.00 77 1019.6
20260902091427 24 0.0 0.0 0.00 0.00 0.00 77 1019.2
20260902090930 24 0.0 0.0 0.00 0.00 0.00 76 1019.4
20260902090427 24 0.0 0.0 0.00 0.00 0.00 75 1019.6
20260902085930 23 0.0 0.0 0.00 0.00 0.00 77 1019.6
20260902085426 23 0.0 0.0 0.00 0.00 0.00 77 1019.5
20260902084930 23 0.0 0.0 0.00 0.00 0.00 78 1019.7
20260902084426 23 0.0 0.0 0.00 0.00 0.00 79 1019.7
20260902083929 23 0.0 0.0 0.00 0.00 0.00 78 1019.8
20260902083426 23 0.0 0.0 0.00 0.00 0.00 79 1019.5
20260902082929 23 0.0 0.0 0.00 0.00 0.00 80 1019.6
20260902082432 23 0.0 0.0 0.00 0.00 0.00 79 1019.4
20260902081929 23 0.0 0.0 0.00 0.00 0.00 77 1019.6
20260902081432 23 0.0 0.0 0.00 0.00 0.00 76 1019.7
20260902080928 22 0.0 0.0 0.00 0.00 0.00 77 1019.6
20260902080432 22 0.0 0.0 0.00 0.00 0.00 77 1019.2
20260902075928 22 0.0 0.0 0.00 0.00 0.00 79 1018.5
20260902075431 22 0.0 0.0 0.00 0.00 0.00 78 1018.9
20260902074928 22 0.0 0.0 0.00 0.00 0.00 78 1019.6
20260902074431 22 0.0 0.0 0.00 0.00 0.00 79 1019.0
20260902073928 22 0.0 0.0 0.00 0.00 0.00 79 1019.1
20260902073431 22 0.0 0.0 0.00 0.00 0.00 79 1019.4
20260902072927 22 0.0 0.0 0.00 0.00 0.00 79 1019.3
20260902072431 22 0.0 0.0 0.00 0.00 0.00 79 1019.2
20260902071927 22 0.0 0.0 0.00 0.00 0.00 79 1018.7
20260902071430 22 0.0 0.0 0.00 0.00 0.00 79 1018.6
20260902070927 21 0.0 0.0 0.00 0.00 0.00 80 1019.2
20260902063926 20 0.0 0.0 0.00 0.00 0.00 86 1019.5
20260902063429 20 0.0 0.0 0.00 0.00 0.00 87 1019.5
20260902062926 20 0.0 0.0 0.00 0.00 0.00 88 1019.2
20260902062429 19 0.0 0.0 0.00 0.00 0.00 88 1019.2
20260902061932 18 0.0 0.0 0.00 0.00 0.00 90 1018.9
20260902061429 18 0.0 0.0 0.00 0.00 0.00 90 1019.2
20260902060932 18 0.0 0.0 0.00 0.00 0.00 91 1018.9
20260902060429 18 0.0 0.0 0.00 0.00 0.00 91 1019.5
20260902055932 18 0.0 0.0 0.00 0.00 0.00 91 1019.5
20260902055428 18 0.0 0.0 0.00 0.00 0.00 92 1019.1
20260902054932 17 0.0 0.0 0.00 0.00 0.00 92 1019.5
20260902054428 17 0.0 0.0 0.00 0.00 0.00 92 1019.2
20260902053931 17 0.0 0.0 0.00 0.00 0.00 92 1019.2
20260902053428 17 0.0 0.0 0.00 0.00 0.00 92 1019.5
20260902052931 17 0.0 0.0 0.00 0.00 0.00 92 1019.5
20260902052427 17 0.0 0.0 0.00 0.00 0.00 92 1019.2
20260902051931 17 0.0 0.0 0.00 0.00 0.00 92 1019.5
20260902051427 17 0.0 0.0 0.00 0.00 0.00 91 1019.2
20260902050930 17 0.0 0.0 0.00 0.00 0.00 91 1019.5
20260902045930 17 0.0 0.0 0.00 0.00 0.00 91 1019.1
20260902045427 17 0.0 0.0 0.00 0.00 0.00 91 1019.2
20260902044930 17 0.0 0.0 0.00 0.00 0.00 92 1019.5
20260902044426 17 0.0 0.0 0.00 0.00 0.00 92 1019.2
20260902043930 17 0.0 0.0 0.00 0.00 0.00 92 1018.9
20260902043426 17 0.0 0.0 0.00 0.00 0.00 93 1019.2
20260902042929 17 0.0 0.0 0.00 0.00 0.00 93 1019.5
20260902042426 17 0.0 0.0 0.00 0.00 0.00 93 1018.8
20260902041929 17 0.0 0.0 0.00 0.00 0.00 92 1019.2
20260902041432 17 0.0 0.0 0.00 0.00 0.00 92 1018.8
20260902040929 17 0.0 0.0 0.00 0.00 0.00 92 1019.1
20260902040432 17 0.0 0.0 0.00 0.00 0.00 91 1018.9
20260902035929 17 0.0 0.0 0.00 0.00 0.00 91 1019.2
20260902035432 17 0.0 0.0 0.00 0.00 0.00 91 1019.2
20260902034928 17 0.0 0.0 0.00 0.00 0.00 91 1019.2
20260902034432 17 0.0 0.0 0.00 0.00 0.00 91 1019.2
20260902033928 17 0.0 0.0 0.00 0.00 0.00 91 1018.7
20260902033431 17 0.0 0.0 0.00 0.00 0.00 91 1018.8
20260902032928 17 0.0 0.0 0.00 0.00 0.00 92 1019.2
20260902032431 17 0.0 0.0 0.00 0.00 0.00 91 1018.9
20260902031928 17 0.0 0.0 0.00 0.00 0.00 92 1019.5
20260902023926 17 0.0 0.0 0.00 0.00 0.00 91 1018.9
20260902023430 17 0.0 0.0 0.00 0.00 0.00 91 1019.2
20260902022926 17 0.0 0.0 0.00 0.00 0.00 90 1019.2
20260902022429 17 0.0 0.0 0.00 0.00 0.00 90 1018.9
20260902021926 17 0.0 0.0 0.00 0.00 0.00 91 1019.2
20260902021429 17 0.0 0.0 0.00 0.00 0.00 91 1019.2
20260902020926 17 0.0 0.0 0.00 0.00 0.00 91 1019.5
20260902020429 17 0.0 0.0 0.00 0.00 0.00 91 1018.6
20260902015932 17 0.0 0.0 0.00 0.00 0.00 91 1019.2
20260902015429 17 0.0 0.0 0.00 0.00 0.00 91 1019.2
20260902014932 17 0.0 0.0 0.00 0.00 0.00 92 1018.9
20260902014428 17 0.0 0.0 0.00 0.00 0.00 92 1019.5
20260902013932 17 0.0 0.0 0.00 0.00 0.00 91 1019.2
20260902013428 17 0.0 0.0 0.00 0.00 0.00 91 1019.2
20260902012931 17 0.0 0.0 0.00 0.00 0.00 92 1019.2
20260902012428 17 0.0 0.0 0.00 0.00 0.00 91 1018.9
20260902011931 17 0.0 0.0 0.00 0.00 0.00 91 1018.9
20260902011427 17 0.0 0.0 0.00 0.00 0.00 91 1019.2
20260902010931 17 0.0 0.0 0.00 0.00 0.00 91 1019.5
20260902010427 17 0.0 0.0 0.00 0.00 0.00 91 1019.5
20260902005427 17 0.0 0.0 0.00 0.00 0.00 91 1018.9
20260902004930 17 0.0 0.0 0.00 0.00 0.00 91 1019.1
20260902004427 17 0.0 0.0 0.00 0.00 0.00 91 1018.9
20260902003930 17 0.0 0.0 0.00 0.00 0.00 90 1018.6
20260902003427 17 0.0 0.0 0.00 0.00 0.00 90 1019.5
20260902002930 17 0.0 0.0 0.00 0.00 0.00 90 1018.5
20260902002426 17 0.0 0.0 0.00 0.00 0.00 90 1019.2
20260902001930 17 0.0 0.0 0.00 0.00 0.00 90 1018.8
20260902001426 17 0.0 0.0 0.00 0.00 0.00 90 1019.2
20260902000929 17 0.0 0.0 0.00 0.00 0.00 90 1019.5
20260902000426 17 0.0 0.0 0.00 0.00 0.00 90 1019.2
20260901235929 18 0.0 0.0 0.00 0.00 0.00 89 1019.5
20260901235432 17 0.0 0.0 0.00 0.00 0.00 89 1019.5
20260901234929 18 0.0 0.0 0.00 0.00 0.00 89 1019.2
20260901234432 18 0.0 0.0 0.00 0.00 0.00 89 1019.1
20260901233929 18 0.0 0.0 0.00 0.00 0.00 89 1018.5
20260901233432 18 0.0 0.0 0.00 0.00 0.00 89 1018.9
20260901232928 18 0.0 0.0 0.00 0.00 0.00 88 1019.2
20260901232432 18 0.0 0.0 0.00 0.00 0.00 88 1019.0
20260901231928 18 0.0 0.0 0.00 0.00 0.00 88 1019.5
20260901231431 18 0.0 0.0 0.00 0.00 0.00 88 1019.2
20260901223927 18 0.0 0.0 0.00 0.00 0.00 89 1019.5
20260901223430 18 0.0 0.0 0.00 0.00 0.00 89 1019.6
20260901222927 18 0.0 0.0 0.00 0.00 0.00 89 1019.2
20260901222430 18 0.0 0.0 0.00 0.00 0.00 89 1019.1
20260901221926 18 0.0 0.0 0.00 0.00 0.00 89 1019.2
20260901221430 18 0.0 0.0 0.00 0.00 0.00 88 1019.6
20260901220926 18 0.0 0.0 0.00 0.00 0.00 88 1019.2
20260901220426 18 0.0 0.0 0.00 0.00 0.00 89 1018.4
20260901215929 18 0.0 0.0 0.00 0.00 0.00 89 1019.5
20260901215432 18 0.0 0.0 0.00 0.00 0.00 88 1018.7
20260901214929 18 0.0 0.0 0.00 0.00 0.00 87 1019.2
20260901214432 18 0.0 0.0 0.00 0.00 0.00 86 1019.5
20260901213928 18 0.0 0.0 0.00 0.00 0.00 85 1018.9
20260901213432 18 0.0 0.0 0.00 0.00 0.00 85 1019.2
20260901212928 18 0.0 0.0 0.00 0.00 0.00 86 1019.2
20260901212431 18 0.0 0.0 0.00 0.00 0.00 86 1018.7
20260901211928 18 0.0 0.0 0.00 0.00 0.00 87 1019.5
20260901210927 18 0.0 0.0 0.00 0.00 0.00 88 1018.1
20260901210431 19 0.0 0.0 0.00 0.00 0.00 88 1019.0
20260901205927 19 0.0 0.0 0.00 0.00 0.00 88 1019.1
20260901205431 19 0.0 0.0 0.00 0.00 0.00 88 1019.2
20260901204927 18 0.0 0.0 0.00 0.00 0.00 87 1019.5
20260901204430 18 0.0 0.0 0.00 0.00 0.00 88 1018.7
20260901203927 19 0.0 0.0 0.00 0.00 0.00 87 1019.2
20260901203430 19 0.0 0.0 0.00 0.00 0.00 86 1019.5
20260901202926 19 0.0 0.0 0.00 0.00 0.00 86 1019.3
20260901202430 19 0.0 0.0 0.00 0.00 0.00 87 1019.2
20260901201926 19 0.0 0.0 0.00 0.00 0.00 87 1019.2
20260901201429 19 0.0 0.0 0.00 0.00 0.00 87 1019.1
20260901200926 19 0.0 0.0 0.00 0.00 0.00 86 1019.5
20260901200429 19 0.0 0.0 0.00 0.00 0.00 86 1019.2
20260901195926 19 0.0 0.0 0.00 0.00 0.00 85 1019.2
20260901195429 19 0.0 0.0 0.00 0.00 0.00 86 1019.5
20260901194932 19 0.0 0.0 0.00 0.00 0.00 86 1019.5
20260901194429 19 0.0 0.0 0.00 0.00 0.00 85 1019.3
20260901193932 20 0.0 0.0 0.00 0.00 0.00 84 1019.2
20260901193428 20 0.0 0.0 0.00 0.00 0.00 84 1019.0
20260901183427 20 0.0 0.0 0.00 0.00 0.00 85 1017.4
20260901182930 21 0.0 0.0 0.00 0.00 0.00 83 1018.6
20260901182426 21 0.0 0.0 0.00 0.00 0.00 85 1017.8
20260901181930 21 0.0 0.0 0.00 0.00 0.00 83 1017.8
20260901181426 21 0.0 0.0 0.00 0.00 0.00 85 1017.6
20260901180930 21 0.0 0.0 0.00 0.00 0.00 86 1018.0
20260901180426 22 0.0 0.0 0.00 0.00 0.00 88 1018.2
20260901175929 22 0.0 0.0 0.00 0.00 0.00 87 1017.4
20260901175426 22 0.0 0.0 0.00 0.00 0.00 86 1017.0
20260901174929 22 0.0 0.0 0.00 0.00 0.00 86 1016.7
20260901174432 22 0.0 0.0 0.00 0.00 0.00 85 1017.2
20260901173929 22 0.0 0.0 0.00 0.00 0.00 85 1018.3
20260901173432 22 0.0 0.0 0.00 0.00 0.00 85 1017.6
20260901172928 23 0.0 0.0 0.00 0.00 0.00 85 1017.1
20260901172432 22 0.0 0.0 0.00 0.00 0.00 85 1016.5
20260901171928 23 0.0 0.0 0.00 0.00 0.00 84 1017.3
20260901171431 23 0.0 0.0 0.00 0.00 0.00 83 1017.2
20260901170928 23 0.0 0.0 0.00 0.00 0.00 83 1017.3
20260901170431 23 0.0 0.0 0.00 0.00 0.00 82 1017.1
20260901165928 23 0.0 0.0 0.00 0.00 0.00 81 1016.4
20260901164927 23 0.0 0.0 0.00 0.00 0.00 81 1016.7
20260901164431 24 0.0 0.0 0.00 0.00 0.00 78 1016.7
20260901163927 24 0.0 0.0 0.00 0.00 0.00 78 1016.8
20260901163430 24 0.0 0.0 0.00 0.00 0.00 79 1017.3
20260901162927 24 0.0 0.0 0.00 0.00 0.00 77 1017.1
20260901162430 25 0.0 0.0 0.00 0.00 0.00 77 1016.5
20260901161927 26 0.0 0.0 0.00 0.00 0.00 73 1016.0
20260901161430 26 0.0 0.0 0.00 0.00 0.00 71 1017.0
20260901160926 26 0.0 0.0 0.00 0.00 0.00 73 1016.3
20260901160430 26 0.0 0.0 0.00 0.00 0.00 71 1015.9
20260901155926 27 0.0 0.0 0.00 0.00 0.00 71 1016.9
20260901155429 27 0.0 0.0 0.00 0.00 0.00 70 1016.6
20260901154926 27 0.0 0.0 0.00 0.00 0.00 67 1017.4
20260901154429 27 0.0 0.0 0.00 0.00 0.00 67 1016.8
20260901153926 27 0.0 0.0 0.00 0.00 0.00 70 1016.5